STARLINK-36792

Last updated on Sun Mar 15 2026 00:02:06 GMT+0000 (Coordinated Universal Time)

1 67804U 26032H 26073.51315061 .00210822 00000+0 13766-2 0 9997 2 67804 97.2843 260.2519 0001485 86.3387 273.8048 15.75241260 5547
UTC large
Height (km)
Speed (km/s)
/
Latitude / Longitude
Inclination (degrees)
Orbital Period (minutes)
Azimuth
Elevation
Range (km)
Doppler Factor

Next 0 passes for location: London (51.5072 / 0.1276)

Sorry there are no passes over London.